| time (UTC) | temp F | wind direction | speed MPH | gust MPH | rain 1hr in | rain 24hr in | rain mn in | humidity % | barometer mb |
| 20260510034327 | 60 | 98 | 7.0 | 14.0 | 0.00 | 0.00 | 0.00 | 56 | 1019.1 |
| 20260510034025 | 61 | 96 | 7.0 | 14.0 | 0.00 | 0.00 | 0.00 | 56 | 1018.9 |
| 20260510033723 | 61 | 96 | 7.0 | 14.0 | 0.00 | 0.00 | 0.00 | 56 | 1018.7 |
| 20260510033426 | 61 | 96 | 8.0 | 14.0 | 0.00 | 0.00 | 0.00 | 56 | 1018.6 |
| 20260510033129 | 61 | 94 | 8.0 | 14.0 | 0.00 | 0.00 | 0.00 | 56 | 1018.4 |
| 20260510032822 | 61 | 91 | 8.0 | 14.0 | 0.00 | 0.00 | 0.00 | 56 | 1018.2 |
| 20260510032518 | 61 | 90 | 9.0 | 17.0 | 0.00 | 0.00 | 0.00 | 56 | 1018.1 |
| 20260510032212 | 62 | 88 | 9.0 | 17.0 | 0.00 | 0.00 | 0.00 | 56 | 1018.1 |
| 20260510031907 | 62 | 87 | 10.0 | 17.0 | 0.00 | 0.00 | 0.00 | 55 | 1018.1 |
| 20260510031609 | 62 | 88 | 10.0 | 17.0 | 0.00 | 0.00 | 0.00 | 55 | 1018.2 |
| 20260510031300 | 62 | 88 | 10.0 | 17.0 | 0.00 | 0.00 | 0.00 | 55 | 1018.2 |
| 20260510030949 | 62 | 84 | 9.0 | 17.0 | 0.00 | 0.00 | 0.00 | 55 | 1018.0 |
| 20260510030642 | 62 | 92 | 9.0 | 14.0 | 0.00 | 0.00 | 0.00 | 55 | 1017.9 |
| 20260510030342 | 62 | 89 | 9.0 | 14.0 | 0.00 | 0.00 | 0.00 | 55 | 1017.7 |
| 20260510030031 | 63 | 96 | 8.0 | 14.0 | 0.00 | 0.00 | 0.00 | 54 | 1017.6 |
| 20260510025730 | 63 | 92 | 9.0 | 14.0 | 0.00 | 0.00 | 0.00 | 54 | 1017.5 |
| 20260510024545 | 64 | 92 | 9.0 | 14.0 | 0.00 | 0.00 | 0.00 | 53 | 1017.3 |
| 20260510024238 | 64 | 91 | 9.0 | 14.0 | 0.00 | 0.00 | 0.00 | 52 | 1017.5 |
| 20260510023940 | 64 | 90 | 8.0 | 13.0 | 0.00 | 0.00 | 0.00 | 52 | 1017.7 |
| 20260510023632 | 64 | 88 | 8.0 | 15.0 | 0.00 | 0.00 | 0.00 | 52 | 1018.0 |
| 20260510023332 | 64 | 88 | 8.0 | 15.0 | 0.00 | 0.00 | 0.00 | 52 | 1018.0 |
| 20260510023029 | 64 | 88 | 8.0 | 15.0 | 0.00 | 0.00 | 0.00 | 52 | 1017.8 |
| 20260510022719 | 65 | 88 | 9.0 | 15.0 | 0.00 | 0.00 | 0.00 | 51 | 1017.8 |
| 20260510022414 | 65 | 86 | 9.0 | 15.0 | 0.00 | 0.00 | 0.00 | 51 | 1017.8 |
| 20260510021650 | 65 | 90 | 9.0 | 14.0 | 0.00 | 0.00 | 0.00 | 51 | 1017.7 |
| 20260510021349 | 65 | 90 | 9.0 | 14.0 | 0.00 | 0.00 | 0.00 | 50 | 1017.4 |
| 20260510021051 | 65 | 90 | 9.0 | 14.0 | 0.00 | 0.00 | 0.00 | 50 | 1017.4 |
| 20260510020740 | 66 | 90 | 9.0 | 14.0 | 0.00 | 0.00 | 0.00 | 50 | 1017.4 |
| 20260510020438 | 66 | 89 | 9.0 | 18.0 | 0.00 | 0.00 | 0.00 | 50 | 1017.4 |
| 20260510015659 | 66 | 89 | 9.0 | 18.0 | 0.00 | 0.00 | 0.00 | 49 | 1017.2 |
| 20260510015357 | 66 | 87 | 10.0 | 18.0 | 0.00 | 0.00 | 0.00 | 49 | 1017.1 |
| 20260510015046 | 66 | 86 | 10.0 | 18.0 | 0.00 | 0.00 | 0.00 | 49 | 1017.1 |
| 20260510014745 | 67 | 86 | 10.0 | 18.0 | 0.00 | 0.00 | 0.00 | 48 | 1016.9 |
| 20260510014437 | 67 | 86 | 9.0 | 17.0 | 0.00 | 0.00 | 0.00 | 48 | 1016.9 |
| 20260510014132 | 67 | 86 | 9.0 | 17.0 | 0.00 | 0.00 | 0.00 | 48 | 1016.8 |
| 20260510013419 | 67 | 91 | 9.0 | 17.0 | 0.00 | 0.00 | 0.00 | 48 | 1016.5 |
| 20260510012651 | 68 | 86 | 9.0 | 15.0 | 0.00 | 0.00 | 0.00 | 47 | 1016.4 |
| 20260510012346 | 68 | 84 | 9.0 | 15.0 | 0.00 | 0.00 | 0.00 | 47 | 1016.3 |
| 20260510012036 | 69 | 81 | 9.0 | 15.0 | 0.00 | 0.00 | 0.00 | 46 | 1016.2 |
| 20260510011327 | 70 | 83 | 9.0 | 15.0 | 0.00 | 0.00 | 0.00 | 45 | 1015.9 |
| 20260510011021 | 70 | 80 | 9.0 | 15.0 | 0.00 | 0.00 | 0.00 | 45 | 1015.8 |
| 20260510010245 | 71 | 80 | 9.0 | 13.0 | 0.00 | 0.00 | 0.00 | 43 | 1015.6 |
| 20260510005933 | 71 | 71 | 9.0 | 17.0 | 0.00 | 0.00 | 0.00 | 43 | 1015.6 |
| 20260510005629 | 72 | 65 | 9.0 | 17.0 | 0.00 | 0.00 | 0.00 | 42 | 1015.4 |
| 20260510005321 | 72 | 65 | 9.0 | 17.0 | 0.00 | 0.00 | 0.00 | 42 | 1015.3 |
| 20260510005020 | 72 | 71 | 9.0 | 18.0 | 0.00 | 0.00 | 0.00 | 41 | 1015.4 |
| 20260510004721 | 73 | 61 | 9.0 | 18.0 | 0.00 | 0.00 | 0.00 | 40 | 1015.4 |
| 20260510004409 | 73 | 66 | 8.0 | 18.0 | 0.00 | 0.00 | 0.00 | 40 | 1015.3 |
| 20260510004058 | 74 | 64 | 8.0 | 18.0 | 0.00 | 0.00 | 0.00 | 39 | 1015.3 |
| 20260510003800 | 74 | 58 | 8.0 | 18.0 | 0.00 | 0.00 | 0.00 | 38 | 1015.2 |
| 20260510003449 | 75 | 56 | 8.0 | 18.0 | 0.00 | 0.00 | 0.00 | 37 | 1015.1 |
| 20260510003148 | 75 | 61 | 8.0 | 18.0 | 0.00 | 0.00 | 0.00 | 35 | 1015.0 |
| 20260510002849 | 75 | 56 | 8.0 | 14.0 | 0.00 | 0.00 | 0.00 | 34 | 1015.0 |
| 20260510002536 | 76 | 57 | 8.0 | 14.0 | 0.00 | 0.00 | 0.00 | 34 | 1015.0 |
| 20260510002236 | 76 | 50 | 8.0 | 14.0 | 0.00 | 0.00 | 0.00 | 33 | 1014.9 |
| 20260510001935 | 76 | 46 | 8.0 | 17.0 | 0.00 | 0.00 | 0.00 | 32 | 1014.9 |
| 20260510001635 | 77 | 35 | 7.0 | 17.0 | 0.00 | 0.00 | 0.00 | 30 | 1014.8 |
| 20260510001334 | 77 | 43 | 8.0 | 17.0 | 0.00 | 0.00 | 0.00 | 30 | 1014.8 |
| 20260510001032 | 78 | 36 | 9.0 | 17.0 | 0.00 | 0.00 | 0.00 | 29 | 1014.7 |
| 20260510000719 | 78 | 37 | 10.0 | 17.0 | 0.00 | 0.00 | 0.00 | 29 | 1014.7 |
| 20260510000411 | 79 | 17 | 10.0 | 17.0 | 0.00 | 0.00 | 0.00 | 29 | 1014.7 |
| 20260510000103 | 79 | 28 | 9.0 | 15.0 | 0.00 | 0.00 | 0.00 | 28 | 1014.5 |
| 20260509235756 | 80 | 22 | 10.0 | 17.0 | 0.00 | 0.00 | 0.00 | 28 | 1014.4 |
| 20260509235036 | 80 | 23 | 10.0 | 17.0 | 0.00 | 0.00 | 0.00 | 28 | 1014.3 |
| 20260509234735 | 80 | 46 | 11.0 | 17.0 | 0.00 | 0.00 | 0.00 | 28 | 1014.3 |
| 20260509234433 | 80 | 31 | 11.0 | 17.0 | 0.00 | 0.00 | 0.00 | 28 | 1014.3 |
| 20260509234125 | 80 | 22 | 11.0 | 17.0 | 0.00 | 0.00 | 0.00 | 27 | 1014.3 |
| 20260509233817 | 80 | 22 | 11.0 | 18.0 | 0.00 | 0.00 | 0.00 | 28 | 1014.4 |
| 20260509233515 | 80 | 19 | 11.0 | 18.0 | 0.00 | 0.00 | 0.00 | 28 | 1014.4 |
| 20260509233208 | 80 | 15 | 10.0 | 18.0 | 0.00 | 0.00 | 0.00 | 28 | 1014.4 |
| 20260509232859 | 81 | 30 | 11.0 | 18.0 | 0.00 | 0.00 | 0.00 | 28 | 1014.4 |
| 20260509232548 | 81 | 39 | 10.0 | 18.0 | 0.00 | 0.00 | 0.00 | 27 | 1014.3 |
| 20260509232252 | 81 | 22 | 10.0 | 18.0 | 0.00 | 0.00 | 0.00 | 26 | 1014.4 |
| 20260509231945 | 82 | 20 | 10.0 | 18.0 | 0.00 | 0.00 | 0.00 | 27 | 1014.2 |
| 20260509231642 | 82 | 42 | 10.0 | 18.0 | 0.00 | 0.00 | 0.00 | 27 | 1014.2 |
| 20260509231336 | 82 | 41 | 11.0 | 18.0 | 0.00 | 0.00 | 0.00 | 26 | 1014.2 |
| 20260509231029 | 82 | 37 | 12.0 | 18.0 | 0.00 | 0.00 | 0.00 | 26 | 1014.2 |
| 20260509230725 | 82 | 15 | 11.0 | 18.0 | 0.00 | 0.00 | 0.00 | 26 | 1014.2 |
| 20260509230426 | 82 | 19 | 10.0 | 18.0 | 0.00 | 0.00 | 0.00 | 26 | 1014.2 |
| 20260509230127 | 83 | 12 | 9.0 | 18.0 | 0.00 | 0.00 | 0.00 | 25 | 1014.1 |
| 20260509225821 | 83 | 42 | 9.0 | 17.0 | 0.00 | 0.00 | 0.00 | 27 | 1014.1 |
| 20260509225514 | 83 | 28 | 9.0 | 21.0 | 0.00 | 0.00 | 0.00 | 26 | 1014.1 |
| 20260509225214 | 83 | 49 | 9.0 | 21.0 | 0.00 | 0.00 | 0.00 | 26 | 1014.1 |
| 20260509224910 | 83 | 32 | 11.0 | 21.0 | 0.00 | 0.00 | 0.00 | 26 | 1014.2 |
| 20260509224607 | 82 | 52 | 11.0 | 22.0 | 0.00 | 0.00 | 0.00 | 26 | 1014.1 |
| 20260509224301 | 82 | 22 | 11.0 | 22.0 | 0.00 | 0.00 | 0.00 | 26 | 1014.1 |
| 20260509224000 | 82 | 19 | 11.0 | 22.0 | 0.00 | 0.00 | 0.00 | 26 | 1014.2 |
| 20260509223703 | 82 | 29 | 12.0 | 22.0 | 0.00 | 0.00 | 0.00 | 26 | 1014.1 |
| 20260509223351 | 83 | 15 | 12.0 | 22.0 | 0.00 | 0.00 | 0.00 | 25 | 1014.2 |
| 20260509222626 | 83 | 355 | 12.0 | 22.0 | 0.00 | 0.00 | 0.00 | 25 | 1014.4 |
| 20260509222329 | 83 | 13 | 13.0 | 21.0 | 0.00 | 0.00 | 0.00 | 24 | 1014.4 |
| 20260509221603 | 83 | 5 | 12.0 | 21.0 | 0.00 | 0.00 | 0.00 | 26 | 1014.3 |
| 20260509221303 | 83 | 14 | 12.0 | 21.0 | 0.00 | 0.00 | 0.00 | 26 | 1014.4 |
| 20260509220124 | 83 | 16 | 11.0 | 21.0 | 0.00 | 0.00 | 0.00 | 26 | 1014.4 |
| 20260509215814 | 83 | 15 | 11.0 | 20.0 | 0.00 | 0.00 | 0.00 | 26 | 1014.4 |
| 20260509215501 | 83 | 19 | 12.0 | 20.0 | 0.00 | 0.00 | 0.00 | 27 | 1014.5 |
| 20260509215148 | 83 | 15 | 12.0 | 20.0 | 0.00 | 0.00 | 0.00 | 26 | 1014.4 |
| 20260509214841 | 83 | 5 | 13.0 | 20.0 | 0.00 | 0.00 | 0.00 | 26 | 1014.4 |
| 20260509214539 | 84 | 355 | 12.0 | 20.0 | 0.00 | 0.00 | 0.00 | 26 | 1014.3 |
| 20260509214238 | 84 | 10 | 11.0 | 20.0 | 0.00 | 0.00 | 0.00 | 26 | 1014.3 |
| 20260509213929 | 84 | 355 | 11.0 | 20.0 | 0.00 | 0.00 | 0.00 | 26 | 1014.3 |
| 20260509213625 | 84 | 19 | 12.0 | 21.0 | 0.00 | 0.00 | 0.00 | 27 | 1014.3 |
| 20260509213313 | 84 | 12 | 13.0 | 21.0 | 0.00 | 0.00 | 0.00 | 27 | 1014.4 |
| 20260509213004 | 84 | 11 | 14.0 | 21.0 | 0.00 | 0.00 | 0.00 | 26 | 1014.3 |
| 20260509212235 | 84 | 0 | 13.0 | 25.0 | 0.00 | 0.00 | 0.00 | 27 | 1014.3 |
| 20260509211101 | 84 | 15 | 13.0 | 25.0 | 0.00 | 0.00 | 0.00 | 26 | 1014.5 |
| 20260509210330 | 84 | 0 | 14.0 | 23.0 | 0.00 | 0.00 | 0.00 | 25 | 1014.5 |
| 20260509210033 | 84 | 13 | 13.0 | 23.0 | 0.00 | 0.00 | 0.00 | 25 | 1014.5 |
| 20260509205731 | 85 | 15 | 12.0 | 22.0 | 0.00 | 0.00 | 0.00 | 25 | 1014.5 |
| 20260509205418 | 85 | 5 | 11.0 | 21.0 | 0.00 | 0.00 | 0.00 | 26 | 1014.5 |
| 20260509205117 | 84 | 5 | 12.0 | 21.0 | 0.00 | 0.00 | 0.00 | 26 | 1014.4 |
| 20260509204813 | 84 | 346 | 13.0 | 21.0 | 0.00 | 0.00 | 0.00 | 26 | 1014.4 |
| 20260509204502 | 84 | 351 | 13.0 | 21.0 | 0.00 | 0.00 | 0.00 | 25 | 1014.5 |
| 20260509204203 | 85 | 345 | 13.0 | 21.0 | 0.00 | 0.00 | 0.00 | 25 | 1014.4 |
| 20260509203432 | 84 | 31 | 10.0 | 22.0 | 0.00 | 0.00 | 0.00 | 26 | 1014.3 |
| 20260509203127 | 84 | 33 | 10.0 | 22.0 | 0.00 | 0.00 | 0.00 | 26 | 1014.2 |
| 20260509202819 | 85 | 14 | 9.0 | 22.0 | 0.00 | 0.00 | 0.00 | 25 | 1014.4 |
| 20260509202513 | 85 | 31 | 10.0 | 22.0 | 0.00 | 0.00 | 0.00 | 25 | 1014.3 |
| 20260509202213 | 86 | 22 | 10.0 | 22.0 | 0.00 | 0.00 | 0.00 | 24 | 1014.4 |
| 20260509201914 | 85 | 355 | 9.0 | 18.0 | 0.00 | 0.00 | 0.00 | 24 | 1014.3 |
| 20260509201616 | 85 | 317 | 9.0 | 17.0 | 0.00 | 0.00 | 0.00 | 24 | 1014.4 |
| 20260509201304 | 85 | 317 | 10.0 | 23.0 | 0.00 | 0.00 | 0.00 | 24 | 1014.3 |
| 20260509201000 | 85 | 347 | 11.0 | 23.0 | 0.00 | 0.00 | 0.00 | 26 | 1014.5 |
| 20260509200653 | 84 | 0 | 12.0 | 23.0 | 0.00 | 0.00 | 0.00 | 25 | 1014.3 |
| 20260509200345 | 84 | 0 | 12.0 | 23.0 | 0.00 | 0.00 | 0.00 | 25 | 1014.4 |
| 20260509200048 | 84 | 10 | 12.0 | 23.0 | 0.00 | 0.00 | 0.00 | 25 | 1014.4 |
| 20260509195745 | 84 | 5 | 12.0 | 23.0 | 0.00 | 0.00 | 0.00 | 24 | 1014.5 |
| 20260509195434 | 85 | 346 | 9.0 | 20.0 | 0.00 | 0.00 | 0.00 | 25 | 1014.4 |
| 20260509194706 | 84 | 350 | 8.0 | 17.0 | 0.00 | 0.00 | 0.00 | 27 | 1014.6 |
| 20260509194408 | 84 | 26 | 7.0 | 17.0 | 0.00 | 0.00 | 0.00 | 26 | 1014.6 |
| 20260509193645 | 84 | 322 | 5.0 | 14.0 | 0.00 | 0.00 | 0.00 | 27 | 1014.7 |
| 20260509193333 | 84 | 313 | 6.0 | 14.0 | 0.00 | 0.00 | 0.00 | 25 | 1014.8 |
| 20260509193028 | 84 | 313 | 7.0 | 14.0 | 0.00 | 0.00 | 0.00 | 26 | 1014.7 |
| 20260509192725 | 84 | 327 | 8.0 | 13.0 | 0.00 | 0.00 | 0.00 | 26 | 1014.7 |
| 20260509192414 | 84 | 340 | 8.0 | 13.0 | 0.00 | 0.00 | 0.00 | 26 | 1014.9 |
| 20260509192113 | 83 | 346 | 7.0 | 13.0 | 0.00 | 0.00 | 0.00 | 27 | 1014.8 |
| 20260509191814 | 83 | 329 | 8.0 | 18.0 | 0.00 | 0.00 | 0.00 | 27 | 1014.8 |
| 20260509191502 | 82 | 327 | 8.0 | 18.0 | 0.00 | 0.00 | 0.00 | 26 | 1014.8 |
| 20260509191154 | 83 | 346 | 8.0 | 18.0 | 0.00 | 0.00 | 0.00 | 26 | 1014.8 |
| 20260509190438 | 83 | 9 | 8.0 | 19.0 | 0.00 | 0.00 | 0.00 | 27 | 1014.9 |
| 20260509190138 | 83 | 9 | 9.0 | 19.0 | 0.00 | 0.00 | 0.00 | 28 | 1014.9 |
| 20260509185835 | 83 | 5 | 10.0 | 19.0 | 0.00 | 0.00 | 0.00 | 27 | 1015.0 |
| 20260509185113 | 82 | 317 | 8.0 | 19.0 | 0.00 | 0.00 | 0.00 | 26 | 1015.0 |
| 20260509184811 | 82 | 328 | 8.0 | 17.0 | 0.00 | 0.00 | 0.00 | 27 | 1014.9 |
| 20260509184508 | 82 | 310 | 8.0 | 17.0 | 0.00 | 0.00 | 0.00 | 27 | 1014.9 |
| 20260509184153 | 81 | 297 | 8.0 | 17.0 | 0.00 | 0.00 | 0.00 | 28 | 1014.9 |
| 20260509183844 | 81 | 311 | 8.0 | 17.0 | 0.00 | 0.00 | 0.00 | 28 | 1015.0 |
| 20260509183539 | 81 | 304 | 8.0 | 17.0 | 0.00 | 0.00 | 0.00 | 28 | 1015.0 |
| 20260509182816 | 81 | 342 | 6.0 | 17.0 | 0.00 | 0.00 | 0.00 | 29 | 1015.0 |
| 20260509182042 | 80 | 340 | 8.0 | 17.0 | 0.00 | 0.00 | 0.00 | 29 | 1015.2 |
| 20260509181741 | 80 | 336 | 9.0 | 17.0 | 0.00 | 0.00 | 0.00 | 28 | 1015.4 |
| 20260509181433 | 80 | 344 | 8.0 | 17.0 | 0.00 | 0.00 | 0.00 | 28 | 1015.4 |
| 20260509181135 | 80 | 304 | 7.0 | 17.0 | 0.00 | 0.00 | 0.00 | 27 | 1015.4 |
| 20260509180824 | 81 | 336 | 7.0 | 17.0 | 0.00 | 0.00 | 0.00 | 29 | 1015.4 |
| 20260509180523 | 81 | 322 | 8.0 | 14.0 | 0.00 | 0.00 | 0.00 | 29 | 1015.5 |
| 20260509180213 | 80 | 321 | 8.0 | 14.0 | 0.00 | 0.00 | 0.00 | 29 | 1015.4 |
| 20260509175902 | 80 | 323 | 8.0 | 14.0 | 0.00 | 0.00 | 0.00 | 29 | 1015.5 |
| 20260509175605 | 80 | 302 | 8.0 | 14.0 | 0.00 | 0.00 | 0.00 | 29 | 1015.6 |
| 20260509174839 | 79 | 297 | 9.0 | 14.0 | 0.00 | 0.00 | 0.00 | 29 | 1015.7 |
| 20260509173655 | 79 | 281 | 8.0 | 18.0 | 0.00 | 0.00 | 0.00 | 31 | 1015.6 |
| 20260509172929 | 80 | 285 | 8.0 | 18.0 | 0.00 | 0.00 | 0.00 | 30 | 1015.7 |
| 20260509172619 | 80 | 284 | 9.0 | 18.0 | 0.00 | 0.00 | 0.00 | 30 | 1015.7 |
| 20260509172320 | 80 | 255 | 9.0 | 18.0 | 0.00 | 0.00 | 0.00 | 31 | 1015.7 |
| 20260509172021 | 79 | 287 | 10.0 | 17.0 | 0.00 | 0.00 | 0.00 | 31 | 1015.7 |
| 20260509171711 | 79 | 244 | 11.0 | 17.0 | 0.00 | 0.00 | 0.00 | 32 | 1016.4 |
| 20260509170948 | 79 | 272 | 11.0 | 21.0 | 0.00 | 0.00 | 0.00 | 32 | 1015.7 |
| 20260509170641 | 78 | 267 | 12.0 | 21.0 | 0.00 | 0.00 | 0.00 | 32 | 1015.7 |
| 20260509170342 | 78 | 244 | 11.0 | 21.0 | 0.00 | 0.00 | 0.00 | 33 | 1015.8 |
| 20260509170031 | 78 | 244 | 12.0 | 22.0 | 0.00 | 0.00 | 0.00 | 32 | 1015.8 |
| 20260509165728 | 78 | 283 | 10.0 | 22.0 | 0.00 | 0.00 | 0.00 | 33 | 1015.7 |
| 20260509165418 | 78 | 251 | 12.0 | 22.0 | 0.00 | 0.00 | 0.00 | 34 | 1015.7 |
| 20260509165105 | 77 | 248 | 12.0 | 22.0 | 0.00 | 0.00 | 0.00 | 33 | 1015.8 |
| 20260509164805 | 77 | 239 | 13.0 | 22.0 | 0.00 | 0.00 | 0.00 | 32 | 1015.9 |
| 20260509164456 | 78 | 252 | 13.0 | 22.0 | 0.00 | 0.00 | 0.00 | 31 | 1015.9 |
| 20260509164151 | 77 | 243 | 12.0 | 22.0 | 0.00 | 0.00 | 0.00 | 33 | 1016.0 |
| 20260509163838 | 77 | 233 | 14.0 | 22.0 | 0.00 | 0.00 | 0.00 | 32 | 1016.1 |
| 20260509163535 | 78 | 238 | 14.0 | 27.0 | 0.00 | 0.00 | 0.00 | 33 | 1016.1 |
| 20260509163222 | 77 | 259 | 16.0 | 27.0 | 0.00 | 0.00 | 0.00 | 33 | 1016.2 |
| 20260509162922 | 77 | 250 | 16.0 | 27.0 | 0.00 | 0.00 | 0.00 | 33 | 1016.1 |
| 20260509162609 | 77 | 269 | 17.0 | 27.0 | 0.00 | 0.00 | 0.00 | 34 | 1016.0 |
| 20260509162310 | 76 | 239 | 17.0 | 27.0 | 0.00 | 0.00 | 0.00 | 35 | 1016.0 |
| 20260509162006 | 76 | 229 | 17.0 | 27.0 | 0.00 | 0.00 | 0.00 | 35 | 1016.1 |
| 20260509161705 | 76 | 250 | 17.0 | 24.0 | 0.00 | 0.00 | 0.00 | 35 | 1015.9 |
| 20260509161356 | 75 | 229 | 18.0 | 25.0 | 0.00 | 0.00 | 0.00 | 35 | 1016.0 |
| 20260509161052 | 75 | 248 | 18.0 | 25.0 | 0.00 | 0.00 | 0.00 | 36 | 1016.1 |
| 20260509160322 | 75 | 240 | 17.0 | 27.0 | 0.00 | 0.00 | 0.00 | 36 | 1016.2 |
| 20260509155602 | 75 | 232 | 17.0 | 27.0 | 0.00 | 0.00 | 0.00 | 36 | 1016.3 |
| 20260509154848 | 74 | 257 | 17.0 | 27.0 | 0.00 | 0.00 | 0.00 | 38 | 1016.4 |
| 20260509154538 | 74 | 254 | 17.0 | 26.0 | 0.00 | 0.00 | 0.00 | 37 | 1016.5 |
| 20260509154234 | 74 | 225 | 17.0 | 26.0 | 0.00 | 0.00 | 0.00 | 38 | 1016.5 |
| 20260509153932 | 74 | 229 | 16.0 | 28.0 | 0.00 | 0.00 | 0.00 | 38 | 1016.5 |
| 20260509153636 | 74 | 229 | 16.0 | 28.0 | 0.00 | 0.00 | 0.00 | 39 | 1016.5 |
| 20260509153329 | 73 | 238 | 16.0 | 28.0 | 0.00 | 0.00 | 0.00 | 39 | 1016.5 |
| 20260509153017 | 73 | 222 | 17.0 | 28.0 | 0.00 | 0.00 | 0.00 | 40 | 1016.5 |
| 20260509152718 | 73 | 227 | 18.0 | 28.0 | 0.00 | 0.00 | 0.00 | 41 | 1016.5 |
| 20260509152408 | 72 | 227 | 18.0 | 28.0 | 0.00 | 0.00 | 0.00 | 40 | 1016.5 |
| 20260509152058 | 72 | 230 | 18.0 | 25.0 | 0.00 | 0.00 | 0.00 | 41 | 1016.6 |
| 20260509151756 | 71 | 221 | 17.0 | 25.0 | 0.00 | 0.00 | 0.00 | 42 | 1016.7 |
| 20260509151447 | 71 | 224 | 17.0 | 27.0 | 0.00 | 0.00 | 0.00 | 42 | 1016.8 |
| 20260509151142 | 71 | 210 | 17.0 | 27.0 | 0.00 | 0.00 | 0.00 | 42 | 1016.9 |
| 20260509150834 | 71 | 214 | 17.0 | 27.0 | 0.00 | 0.00 | 0.00 | 42 | 1017.1 |
| 20260509150522 | 71 | 232 | 16.0 | 27.0 | 0.00 | 0.00 | 0.00 | 42 | 1016.9 |
| 20260509145805 | 70 | 238 | 18.0 | 29.0 | 0.00 | 0.00 | 0.00 | 43 | 1017.0 |
| 20260509145453 | 70 | 239 | 19.0 | 29.0 | 0.00 | 0.00 | 0.00 | 43 | 1017.1 |
| 20260509145149 | 69 | 237 | 19.0 | 29.0 | 0.00 | 0.00 | 0.00 | 43 | 1017.1 |
| 20260509144843 | 69 | 247 | 18.0 | 29.0 | 0.00 | 0.00 | 0.00 | 42 | 1017.0 |
| 20260509144542 | 69 | 225 | 18.0 | 29.0 | 0.00 | 0.00 | 0.00 | 43 | 1017.1 |
| 20260509144239 | 69 | 218 | 18.0 | 25.0 | 0.00 | 0.00 | 0.00 | 43 | 1017.2 |
| 20260509143940 | 68 | 225 | 18.0 | 25.0 | 0.00 | 0.00 | 0.00 | 45 | 1017.3 |
| 20260509143634 | 68 | 225 | 18.0 | 25.0 | 0.00 | 0.00 | 0.00 | 45 | 1017.5 |
| 20260509142904 | 67 | 229 | 16.0 | 24.0 | 0.00 | 0.00 | 0.00 | 46 | 1017.5 |
| 20260509142600 | 67 | 241 | 15.0 | 24.0 | 0.00 | 0.00 | 0.00 | 48 | 1017.6 |
| 20260509142300 | 66 | 240 | 16.0 | 24.0 | 0.00 | 0.00 | 0.00 | 49 | 1017.9 |
| 20260509141952 | 66 | 231 | 15.0 | 24.0 | 0.00 | 0.00 | 0.00 | 49 | 1017.9 |
| 20260509141652 | 65 | 231 | 15.0 | 24.0 | 0.00 | 0.00 | 0.00 | 50 | 1017.9 |
| 20260509141341 | 64 | 230 | 14.0 | 24.0 | 0.00 | 0.00 | 0.00 | 52 | 1018.0 |
| 20260509141038 | 64 | 227 | 14.0 | 24.0 | 0.00 | 0.00 | 0.00 | 52 | 1018.0 |
| 20260509140730 | 63 | 246 | 14.0 | 21.0 | 0.00 | 0.00 | 0.00 | 53 | 1018.2 |
| 20260509140431 | 63 | 241 | 14.0 | 21.0 | 0.00 | 0.00 | 0.00 | 54 | 1018.2 |
| 20260509140122 | 62 | 235 | 14.0 | 21.0 | 0.00 | 0.00 | 0.00 | 55 | 1018.3 |
| 20260509135824 | 62 | 241 | 14.0 | 21.0 | 0.00 | 0.00 | 0.00 | 56 | 1018.2 |
| 20260509135053 | 61 | 228 | 13.0 | 22.0 | 0.00 | 0.00 | 0.00 | 57 | 1018.4 |
| 20260509134743 | 60 | 232 | 13.0 | 22.0 | 0.00 | 0.00 | 0.00 | 58 | 1018.4 |
| 20260509134445 | 60 | 233 | 14.0 | 22.0 | 0.00 | 0.00 | 0.00 | 58 | 1018.6 |
| 20260509134147 | 59 | 236 | 15.0 | 22.0 | 0.00 | 0.00 | 0.00 | 58 | 1018.6 |
| 20260509133842 | 59 | 239 | 14.0 | 22.0 | 0.00 | 0.00 | 0.00 | 58 | 1018.6 |
| 20260509133532 | 59 | 229 | 13.0 | 22.0 | 0.00 | 0.00 | 0.00 | 58 | 1018.7 |
| 20260509132809 | 58 | 242 | 12.0 | 22.0 | 0.00 | 0.00 | 0.00 | 60 | 1018.7 |
| 20260509132508 | 58 | 242 | 11.0 | 17.0 | 0.00 | 0.00 | 0.00 | 62 | 1018.8 |
| 20260509131747 | 56 | 233 | 10.0 | 15.0 | 0.00 | 0.00 | 0.00 | 64 | 1018.7 |
| 20260509131433 | 56 | 237 | 9.0 | 15.0 | 0.00 | 0.00 | 0.00 | 65 | 1018.8 |
| 20260509131133 | 55 | 237 | 8.0 | 14.0 | 0.00 | 0.00 | 0.00 | 67 | 1018.7 |
| 20260509130822 | 53 | 240 | 6.0 | 14.0 | 0.00 | 0.00 | 0.00 | 69 | 1018.7 |
| 20260509130515 | 52 | 240 | 5.0 | 11.0 | 0.00 | 0.00 | 0.00 | 71 | 1018.7 |
| 20260509130217 | 52 | 240 | 5.0 | 8.0 | 0.00 | 0.00 | 0.00 | 71 | 1018.7 |
| 20260509125908 | 52 | 240 | 4.0 | 7.0 | 0.00 | 0.00 | 0.00 | 72 | 1018.7 |
| 20260509125610 | 51 | 240 | 4.0 | 7.0 | 0.00 | 0.00 | 0.00 | 72 | 1018.7 |
| 20260509124843 | 51 | 240 | 4.0 | 5.0 | 0.00 | 0.00 | 0.00 | 73 | 1018.5 |
| 20260509124541 | 50 | 240 | 4.0 | 5.0 | 0.00 | 0.00 | 0.00 | 73 | 1018.4 |
| 20260509124231 | 50 | 240 | 3.0 | 5.0 | 0.00 | 0.00 | 0.00 | 73 | 1018.4 |
| 20260509123923 | 50 | 240 | 3.0 | 7.0 | 0.00 | 0.00 | 0.00 | 73 | 1018.3 |
| 20260509123619 | 50 | 240 | 4.0 | 7.0 | 0.00 | 0.00 | 0.00 | 73 | 1018.2 |
| 20260509123322 | 50 | 240 | 4.0 | 7.0 | 0.00 | 0.00 | 0.00 | 73 | 1018.1 |
| 20260509122135 | 50 | 240 | 6.0 | 8.0 | 0.00 | 0.00 | 0.00 | 73 | 1018.1 |
| 20260509121410 | 49 | 240 | 6.0 | 8.0 | 0.00 | 0.00 | 0.00 | 73 | 1017.9 |
| 20260509121102 | 49 | 240 | 5.0 | 8.0 | 0.00 | 0.00 | 0.00 | 74 | 1017.8 |
| 20260509120750 | 49 | 240 | 5.0 | 8.0 | 0.00 | 0.00 | 0.00 | 74 | 1017.8 |
| 20260509120437 | 49 | 240 | 5.0 | 8.0 | 0.00 | 0.00 | 0.00 | 73 | 1017.8 |
| 20260509120132 | 49 | 240 | 6.0 | 8.0 | 0.00 | 0.00 | 0.00 | 73 | 1017.7 |
| 20260509115825 | 49 | 240 | 6.0 | 8.0 | 0.00 | 0.00 | 0.00 | 72 | 1017.6 |
| 20260509115518 | 49 | 240 | 6.0 | 8.0 | 0.00 | 0.00 | 0.00 | 72 | 1017.6 |
| 20260509115211 | 49 | 240 | 6.0 | 10.0 | 0.00 | 0.00 | 0.00 | 72 | 1017.7 |
| 20260509114905 | 50 | 240 | 6.0 | 10.0 | 0.00 | 0.00 | 0.00 | 71 | 1017.6 |
| 20260509114601 | 50 | 240 | 6.0 | 10.0 | 0.00 | 0.00 | 0.00 | 70 | 1017.6 |
| 20260509114303 | 50 | 240 | 7.0 | 11.0 | 0.00 | 0.00 | 0.00 | 70 | 1017.6 |
| 20260509113546 | 51 | 240 | 8.0 | 11.0 | 0.00 | 0.00 | 0.00 | 69 | 1017.5 |
| 20260509113249 | 51 | 240 | 8.0 | 11.0 | 0.00 | 0.00 | 0.00 | 69 | 1017.5 |
| 20260509112945 | 51 | 241 | 7.0 | 11.0 | 0.00 | 0.00 | 0.00 | 69 | 1017.6 |
| 20260509112635 | 51 | 241 | 7.0 | 11.0 | 0.00 | 0.00 | 0.00 | 69 | 1017.6 |
| 20260509112325 | 51 | 241 | 7.0 | 10.0 | 0.00 | 0.00 | 0.00 | 68 | 1017.6 |
| 20260509112019 | 51 | 241 | 7.0 | 10.0 | 0.00 | 0.00 | 0.00 | 68 | 1017.6 |
| 20260509111704 | 52 | 241 | 7.0 | 10.0 | 0.00 | 0.00 | 0.00 | 67 | 1017.7 |
| 20260509111404 | 52 | 241 | 7.0 | 11.0 | 0.00 | 0.00 | 0.00 | 67 | 1017.7 |
| 20260509111104 | 52 | 241 | 7.0 | 11.0 | 0.00 | 0.00 | 0.00 | 66 | 1017.7 |
| 20260509110339 | 53 | 241 | 8.0 | 11.0 | 0.00 | 0.00 | 0.00 | 66 | 1017.8 |
| 20260509110040 | 53 | 241 | 8.0 | 11.0 | 0.00 | 0.00 | 0.00 | 65 | 1017.9 |
| 20260509105315 | 53 | 241 | 7.0 | 11.0 | 0.00 | 0.00 | 0.00 | 65 | 1017.9 |
| 20260509105013 | 53 | 241 | 7.0 | 11.0 | 0.00 | 0.00 | 0.00 | 65 | 1017.9 |
| 20260509104713 | 53 | 241 | 8.0 | 11.0 | 0.00 | 0.00 | 0.00 | 65 | 1017.9 |
| 20260509103948 | 53 | 242 | 7.0 | 11.0 | 0.00 | 0.00 | 0.00 | 66 | 1017.9 |
| 20260509103648 | 53 | 242 | 7.0 | 11.0 | 0.00 | 0.00 | 0.00 | 67 | 1017.9 |
| 20260509103341 | 53 | 242 | 6.0 | 9.0 | 0.00 | 0.00 | 0.00 | 68 | 1018.0 |
| 20260509103029 | 52 | 242 | 6.0 | 9.0 | 0.00 | 0.00 | 0.00 | 68 | 1017.9 |
| 20260509102724 | 52 | 242 | 5.0 | 8.0 | 0.00 | 0.00 | 0.00 | 69 | 1018.1 |
| 20260509102418 | 52 | 242 | 5.0 | 7.0 | 0.00 | 0.00 | 0.00 | 69 | 1018.1 |
| 20260509102121 | 52 | 242 | 5.0 | 9.0 | 0.00 | 0.00 | 0.00 | 69 | 1018.1 |
| 20260509101811 | 52 | 242 | 5.0 | 9.0 | 0.00 | 0.00 | 0.00 | 69 | 1018.1 |
| 20260509101053 | 52 | 242 | 6.0 | 9.0 | 0.00 | 0.00 | 0.00 | 69 | 1018.1 |
| 20260509100747 | 52 | 242 | 6.0 | 9.0 | 0.00 | 0.00 | 0.00 | 69 | 1018.1 |
| 20260509100017 | 52 | 242 | 6.0 | 8.0 | 0.00 | 0.00 | 0.00 | 69 | 1018.1 |
| 20260509095715 | 53 | 242 | 6.0 | 10.0 | 0.00 | 0.00 | 0.00 | 69 | 1017.9 |
| 20260509093635 | 53 | 242 | 7.0 | 11.0 | 0.00 | 0.00 | 0.00 | 69 | 1018.1 |
| 20260509093333 | 53 | 242 | 7.0 | 11.0 | 0.00 | 0.00 | 0.00 | 69 | 1018.0 |
| 20260509093037 | 53 | 242 | 7.0 | 11.0 | 0.00 | 0.00 | 0.00 | 69 | 1018.1 |
| 20260509092740 | 53 | 242 | 7.0 | 10.0 | 0.00 | 0.00 | 0.00 | 69 | 1018.2 |
| 20260509092435 | 53 | 242 | 7.0 | 10.0 | 0.00 | 0.00 | 0.00 | 69 | 1018.2 |
| 20260509092137 | 53 | 242 | 7.0 | 11.0 | 0.00 | 0.00 | 0.00 | 69 | 1018.3 |
| 20260509091831 | 53 | 242 | 6.0 | 11.0 | 0.00 | 0.00 | 0.00 | 69 | 1018.2 |
| 20260509091522 | 53 | 242 | 7.0 | 11.0 | 0.00 | 0.00 | 0.00 | 68 | 1018.2 |
| 20260509091221 | 54 | 242 | 7.0 | 11.0 | 0.00 | 0.00 | 0.00 | 68 | 1018.2 |
| 20260509090923 | 54 | 242 | 8.0 | 11.0 | 0.00 | 0.00 | 0.00 | 67 | 1018.2 |
| 20260509090622 | 54 | 242 | 8.0 | 11.0 | 0.00 | 0.00 | 0.00 | 67 | 1018.1 |
| 20260509090320 | 54 | 242 | 8.0 | 11.0 | 0.00 | 0.00 | 0.00 | 67 | 1018.1 |
| 20260509085131 | 53 | 248 | 8.0 | 12.0 | 0.00 | 0.00 | 0.00 | 70 | 1017.9 |
| 20260509084833 | 53 | 253 | 8.0 | 12.0 | 0.00 | 0.00 | 0.00 | 70 | 1018.0 |
| 20260509084533 | 53 | 263 | 8.0 | 12.0 | 0.00 | 0.00 | 0.00 | 71 | 1018.1 |
| 20260509084227 | 53 | 274 | 8.0 | 12.0 | 0.00 | 0.00 | 0.00 | 70 | 1018.3 |
| 20260509083927 | 53 | 288 | 8.0 | 10.0 | 0.00 | 0.00 | 0.00 | 70 | 1018.3 |
| 20260509083619 | 53 | 293 | 7.0 | 10.0 | 0.00 | 0.00 | 0.00 | 70 | 1018.3 |
| 20260509083314 | 53 | 304 | 7.0 | 10.0 | 0.00 | 0.00 | 0.00 | 71 | 1018.3 |
| 20260509082602 | 53 | 355 | 7.0 | 10.0 | 0.00 | 0.00 | 0.00 | 72 | 1018.3 |
| 20260509081832 | 53 | 32 | 7.0 | 10.0 | 0.00 | 0.00 | 0.00 | 72 | 1018.3 |
| 20260509081102 | 52 | 35 | 6.0 | 10.0 | 0.00 | 0.00 | 0.00 | 75 | 1018.0 |
| 20260509080346 | 52 | 34 | 6.0 | 9.0 | 0.00 | 0.00 | 0.00 | 75 | 1018.4 |
| 20260509080034 | 52 | 34 | 6.0 | 9.0 | 0.00 | 0.00 | 0.00 | 75 | 1018.4 |
| 20260509075729 | 52 | 35 | 6.0 | 9.0 | 0.00 | 0.00 | 0.00 | 75 | 1018.5 |
| 20260509075421 | 51 | 36 | 6.0 | 9.0 | 0.00 | 0.00 | 0.00 | 76 | 1018.4 |
| 20260509075116 | 51 | 36 | 6.0 | 9.0 | 0.00 | 0.00 | 0.00 | 77 | 1018.4 |
| 20260509074815 | 50 | 36 | 6.0 | 8.0 | 0.00 | 0.00 | 0.00 | 78 | 1018.5 |
| 20260509074519 | 50 | 36 | 6.0 | 8.0 | 0.00 | 0.00 | 0.00 | 79 | 1018.5 |
| 20260509074207 | 49 | 36 | 5.0 | 8.0 | 0.00 | 0.00 | 0.00 | 80 | 1018.5 |
| 20260509073900 | 49 | 36 | 5.0 | 8.0 | 0.00 | 0.00 | 0.00 | 82 | 1018.6 |
| 20260509073602 | 48 | 36 | 4.0 | 8.0 | 0.00 | 0.00 | 0.00 | 83 | 1018.7 |
| 20260509073249 | 47 | 36 | 4.0 | 6.0 | 0.00 | 0.00 | 0.00 | 83 | 1018.7 |
| 20260509072951 | 47 | 36 | 3.0 | 5.0 | 0.00 | 0.00 | 0.00 | 83 | 1018.7 |
| 20260509072653 | 47 | 36 | 3.0 | 4.0 | 0.00 | 0.00 | 0.00 | 83 | 1018.7 |
| 20260509071942 | 46 | 36 | 1.0 | 4.0 | 0.00 | 0.00 | 0.00 | 83 | 1018.7 |
| 20260509071644 | 46 | 36 | 0.0 | 2.0 | 0.00 | 0.00 | 0.00 | 83 | 1018.7 |
| 20260509071330 | 46 | 36 | 0.0 | 1.0 | 0.00 | 0.00 | 0.00 | 83 | 1018.7 |
| 20260509071028 | 46 | 36 | 0.0 | 1.0 | 0.00 | 0.00 | 0.00 | 83 | 1018.6 |
| 20260509070723 | 46 | 36 | 0.0 | 4.0 | 0.00 | 0.00 | 0.00 | 83 | 1018.8 |
| 20260509065125 | 46 | 36 | 1.0 | 3.0 | 0.00 | 0.00 | 0.00 | 84 | 1019.1 |
| 20260509064823 | 46 | 36 | 1.0 | 4.0 | 0.00 | 0.00 | 0.00 | 83 | 1019.0 |
| 20260509064515 | 45 | 36 | 1.0 | 4.0 | 0.00 | 0.00 | 0.00 | 83 | 1019.1 |
| 20260509064213 | 45 | 36 | 1.0 | 4.0 | 0.00 | 0.00 | 0.00 | 83 | 1019.2 |
| 20260509063026 | 45 | 36 | 2.0 | 4.0 | 0.00 | 0.00 | 0.00 | 83 | 1019.1 |
| 20260509062729 | 44 | 36 | 1.0 | 4.0 | 0.00 | 0.00 | 0.00 | 83 | 1019.1 |
| 20260509062419 | 44 | 36 | 2.0 | 4.0 | 0.00 | 0.00 | 0.00 | 82 | 1019.1 |
| 20260509062120 | 44 | 36 | 2.0 | 4.0 | 0.00 | 0.00 | 0.00 | 81 | 1019.0 |
| 20260509061820 | 45 | 36 | 1.0 | 4.0 | 0.00 | 0.00 | 0.00 | 81 | 1018.9 |
| 20260509061508 | 45 | 36 | 0.0 | 3.0 | 0.00 | 0.00 | 0.00 | 81 | 1019.0 |
| 20260509061207 | 45 | 36 | 0.0 | 1.0 | 0.00 | 0.00 | 0.00 | 81 | 1018.9 |
| 20260509060904 | 45 | 36 | 0.0 | 0.0 | 0.00 | 0.00 | 0.00 | 81 | 1018.8 |
| 20260509060605 | 45 | 36 | 0.0 | 1.0 | 0.00 | 0.00 | 0.00 | 81 | 1018.8 |
| 20260509060300 | 45 | 36 | 0.0 | 3.0 | 0.00 | 0.00 | 0.00 | 81 | 1018.8 |
| 20260509055111 | 45 | 36 | 0.0 | 3.0 | 0.00 | 0.00 | 0.00 | 81 | 1018.9 |
| 20260509054813 | 45 | 36 | 0.0 | 3.0 | 0.00 | 0.00 | 0.00 | 81 | 1019.0 |
| 20260509054513 | 45 | 36 | 0.0 | 3.0 | 0.00 | 0.00 | 0.00 | 81 | 1019.2 |
| 20260509054202 | 44 | 36 | 0.0 | 2.0 | 0.00 | 0.00 | 0.00 | 81 | 1019.2 |
| 20260509053855 | 44 | 36 | 0.0 | 2.0 | 0.00 | 0.00 | 0.00 | 81 | 1019.2 |
| 20260509053545 | 44 | 36 | 0.0 | 0.0 | 0.00 | 0.00 | 0.00 | 80 | 1019.2 |
| 20260509053240 | 44 | 36 | 1.0 | 4.0 | 0.00 | 0.00 | 0.00 | 80 | 1019.3 |
| 20260509052930 | 44 | 36 | 2.0 | 4.0 | 0.00 | 0.00 | 0.00 | 80 | 1019.5 |
| 20260509052155 | 45 | 36 | 2.0 | 4.0 | 0.00 | 0.00 | 0.00 | 80 | 1019.4 |
| 20260509051854 | 45 | 36 | 1.0 | 4.0 | 0.00 | 0.00 | 0.00 | 80 | 1019.4 |
| 20260509051557 | 45 | 36 | 1.0 | 4.0 | 0.00 | 0.00 | 0.00 | 79 | 1019.3 |
| 20260509045947 | 45 | 36 | 0.0 | 5.0 | 0.00 | 0.00 | 0.00 | 78 | 1019.3 |
| 20260509045648 | 46 | 36 | 0.0 | 5.0 | 0.00 | 0.00 | 0.00 | 78 | 1019.2 |
| 20260509045338 | 46 | 36 | 1.0 | 5.0 | 0.00 | 0.00 | 0.00 | 78 | 1019.2 |
| 20260509045030 | 46 | 36 | 1.0 | 5.0 | 0.00 | 0.00 | 0.00 | 78 | 1019.3 |
| 20260509044724 | 46 | 36 | 1.0 | 5.0 | 0.00 | 0.00 | 0.00 | 77 | 1019.4 |
| 20260509044427 | 46 | 36 | 0.0 | 3.0 | 0.00 | 0.00 | 0.00 | 76 | 1019.4 |
| 20260509044117 | 46 | 36 | 0.0 | 1.0 | 0.00 | 0.00 | 0.00 | 75 | 1019.2 |
| 20260509043804 | 46 | 36 | 0.0 | 0.0 | 0.00 | 0.00 | 0.00 | 75 | 1019.2 |
| 20260509043502 | 46 | 36 | 0.0 | 3.0 | 0.00 | 0.00 | 0.00 | 75 | 1019.3 |
| 20260509043201 | 46 | 36 | 0.0 | 3.0 | 0.00 | 0.00 | 0.00 | 75 | 1019.4 |
| 20260509042853 | 47 | 36 | 0.0 | 0.0 | 0.00 | 0.00 | 0.00 | 75 | 1019.4 |
| 20260509042552 | 47 | 36 | 0.0 | 1.0 | 0.00 | 0.00 | 0.00 | 75 | 1019.2 |
| 20260509042256 | 47 | 36 | 0.0 | 1.0 | 0.00 | 0.00 | 0.00 | 74 | 1019.2 |
| 20260509041946 | 47 | 36 | 0.0 | 0.0 | 0.00 | 0.00 | 0.00 | 74 | 1019.1 |
| 20260509041650 | 47 | 36 | 0.0 | 4.0 | 0.00 | 0.00 | 0.00 | 74 | 1019.2 |
| 20260509040508 | 47 | 36 | 1.0 | 1.0 | 0.00 | 0.00 | 0.00 | 72 | 1019.2 |
| 20260509040156 | 47 | 36 | 1.0 | 4.0 | 0.00 | 0.00 | 0.00 | 72 | 1019.3 |
| 20260509035426 | 48 | 36 | 0.0 | 3.0 | 0.00 | 0.00 | 0.00 | 70 | 1019.3 |
| 20260509035114 | 48 | 36 | 0.0 | 0.0 | 0.00 | 0.00 | 0.00 | 69 | 1019.1 |